Time,TemperatureF,DewpointF,PressureIn,WindDirection,WindDirectionDegrees,WindSpeedMPH,WindSpeedGustMPH,Humidity,HourlyPrecipIn,Conditions,Clouds,dailyrainin,SoftwareType,DateUTC
2014-03-26 00:07:00,56.9,36.0,30.21,ENE,74,3.0,6.0,46,0.00,,,0.00,weatherlink.com 1.10,2014-03-26 05:07:00,
2014-03-26 00:22:00,56.7,36.0,30.21,ENE,58,2.0,6.0,46,0.00,,,0.00,weatherlink.com 1.10,2014-03-26 05:22:00,
2014-03-26 00:37:00,56.2,36.0,30.20,NE,55,0.0,7.0,47,0.00,,,0.00,weatherlink.com 1.10,2014-03-26 05:37:00,
2014-03-26 00:52:00,56.0,36.0,30.21,ENE,62,4.0,5.0,47,0.00,,,0.00,weatherlink.com 1.10,2014-03-26 05:52:00,
2014-03-26 01:07:00,55.8,35.0,30.20,ENE,63,3.0,7.0,46,0.00,,,0.00,weatherlink.com 1.10,2014-03-26 06:07:00,
2014-03-26 01:22:00,55.6,35.0,30.20,NE,50,3.0,5.0,47,0.00,,,0.00,weatherlink.com 1.10,2014-03-26 06:22:00,
2014-03-26 01:37:00,55.3,35.0,30.20,ENE,74,4.0,8.0,47,0.00,,,0.00,weatherlink.com 1.10,2014-03-26 06:37:00,
2014-03-26 01:52:00,55.3,35.0,30.20,ENE,65,0.0,8.0,47,0.00,,,0.00,weatherlink.com 1.10,2014-03-26 06:52:00,
2014-03-26 02:07:00,55.1,36.0,30.20,NE,48,0.0,8.0,49,0.00,,,0.00,weatherlink.com 1.10,2014-03-26 07:07:00,
2014-03-26 02:22:00,54.9,36.0,30.20,ENE,76,0.0,5.0,50,0.00,,,0.00,weatherlink.com 1.10,2014-03-26 07:22:00,
2014-03-26 02:37:00,54.6,38.0,30.20,East,81,0.0,8.0,53,0.00,,,0.00,weatherlink.com 1.10,2014-03-26 07:37:00,
2014-03-26 02:52:00,54.4,39.0,30.19,East,83,1.0,5.0,57,0.00,,,0.00,weatherlink.com 1.10,2014-03-26 07:52:00,
2014-03-26 03:07:00,54.4,41.0,30.19,ESE,104,0.0,5.0,61,0.00,,,0.00,weatherlink.com 1.10,2014-03-26 08:07:00,
2014-03-26 03:23:00,54.2,43.0,30.18,East,85,1.0,6.0,65,0.00,,,0.00,weatherlink.com 1.10,2014-03-26 08:23:00,
2014-03-26 03:38:00,54.0,44.0,30.17,East,79,2.0,8.0,68,0.00,,,0.00,weatherlink.com 1.10,2014-03-26 08:38:00,
2014-03-26 03:53:00,54.0,44.0,30.17,East,86,2.0,6.0,69,0.00,,,0.00,weatherlink.com 1.10,2014-03-26 08:53:00,
2014-03-26 04:08:00,54.0,45.0,30.15,East,80,1.0,4.0,71,0.00,,,0.00,weatherlink.com 1.10,2014-03-26 09:08:00,
2014-03-26 04:23:00,53.9,45.0,30.15,ENE,71,3.0,6.0,72,0.00,,,0.00,weatherlink.com 1.10,2014-03-26 09:23:00,
2014-03-26 04:38:00,53.8,45.0,30.15,ENE,70,3.0,4.0,73,0.00,,,0.00,weatherlink.com 1.10,2014-03-26 09:38:00,
2014-03-26 04:53:00,53.6,46.0,30.14,East,85,1.0,7.0,74,0.00,,,0.00,weatherlink.com 1.10,2014-03-26 09:53:00,
2014-03-26 05:08:00,53.5,46.0,30.12,NE,50,2.0,6.0,75,0.00,,,0.00,weatherlink.com 1.10,2014-03-26 10:08:00,
2014-03-26 05:23:00,53.5,46.0,30.12,ENE,77,1.0,7.0,77,0.00,,,0.00,weatherlink.com 1.10,2014-03-26 10:23:00,
2014-03-26 05:38:00,53.6,47.0,30.12,ENE,62,0.0,8.0,77,0.00,,,0.00,weatherlink.com 1.10,2014-03-26 10:38:00,
2014-03-26 05:53:00,53.5,47.0,30.13,ENE,67,0.0,4.0,78,0.00,,,0.00,weatherlink.com 1.10,2014-03-26 10:53:00,
2014-03-26 06:08:00,53.7,47.0,30.13,East,83,1.0,5.0,79,0.00,,,0.00,weatherlink.com 1.10,2014-03-26 11:08:00,
2014-03-26 06:23:00,53.7,47.0,30.13,NE,56,1.0,7.0,79,0.00,,,0.00,weatherlink.com 1.10,2014-03-26 11:23:00,
2014-03-26 06:38:00,53.6,48.0,30.12,ENE,75,2.0,7.0,80,0.00,,,0.00,weatherlink.com 1.10,2014-03-26 11:38:00,
2014-03-26 06:53:00,53.6,48.0,30.12,ESE,108,4.0,6.0,81,0.00,,,0.00,weatherlink.com 1.10,2014-03-26 11:53:00,
2014-03-26 07:08:00,53.5,48.0,30.13,ESE,123,0.0,6.0,82,0.00,,,0.00,weatherlink.com 1.10,2014-03-26 12:08:00,
2014-03-26 07:23:00,53.5,48.0,30.13,ENE,66,3.0,7.0,82,0.00,,,0.00,weatherlink.com 1.10,2014-03-26 12:23:00,
2014-03-26 07:38:00,53.4,48.0,30.14,East,97,0.0,6.0,83,0.00,,,0.00,weatherlink.com 1.10,2014-03-26 12:38:00,
2014-03-26 07:53:00,53.5,49.0,30.13,ENE,78,2.0,7.0,83,0.00,,,0.00,weatherlink.com 1.10,2014-03-26 12:53:00,
2014-03-26 08:08:00,53.5,49.0,30.14,ENE,73,3.0,7.0,83,0.00,,,0.00,weatherlink.com 1.10,2014-03-26 13:08:00,
2014-03-26 08:23:00,53.5,49.0,30.14,ENE,62,1.0,8.0,83,0.00,,,0.00,weatherlink.com 1.10,2014-03-26 13:23:00,
2014-03-26 08:38:00,53.5,49.0,30.13,NE,40,5.0,9.0,83,0.00,,,0.00,weatherlink.com 1.10,2014-03-26 13:38:00,
2014-03-26 08:53:00,53.6,49.0,30.13,ENE,60,2.0,10.0,83,0.00,,,0.00,weatherlink.com 1.10,2014-03-26 13:53:00,
2014-03-26 09:08:00,54.2,49.0,30.14,ENE,76,4.0,6.0,81,0.00,,,0.00,weatherlink.com 1.10,2014-03-26 14:08:00,
2014-03-26 09:23:00,55.1,49.0,30.15,ENE,73,3.0,8.0,79,0.00,,,0.00,weatherlink.com 1.10,2014-03-26 14:23:00,
2014-03-26 09:38:00,55.8,49.0,30.14,ESE,111,0.0,8.0,78,0.00,,,0.00,weatherlink.com 1.10,2014-03-26 14:38:00,
2014-03-26 09:53:00,57.2,49.0,30.14,ENE,67,4.0,13.0,75,0.00,,,0.00,weatherlink.com 1.10,2014-03-26 14:53:00,
2014-03-26 10:08:00,57.4,49.0,30.15,East,85,6.0,10.0,74,0.00,,,0.00,weatherlink.com 1.10,2014-03-26 15:08:00,
2014-03-26 10:23:00,57.3,49.0,30.15,NE,36,6.0,11.0,75,0.00,,,0.00,weatherlink.com 1.10,2014-03-26 15:23:00,
2014-03-26 10:38:00,58.1,50.0,30.14,East,79,8.0,12.0,74,0.00,,,0.00,weatherlink.com 1.10,2014-03-26 15:38:00,
2014-03-26 10:53:00,58.6,50.0,30.14,South,172,3.0,11.0,74,0.00,,,0.00,weatherlink.com 1.10,2014-03-26 15:53:00,
2014-03-26 11:08:00,59.4,51.0,30.13,ESE,107,8.0,13.0,73,0.00,,,0.00,weatherlink.com 1.10,2014-03-26 16:08:00,
2014-03-26 11:24:00,61.1,50.0,30.15,SE,143,5.0,15.0,68,0.00,,,0.00,weatherlink.com 1.10,2014-03-26 16:24:00,
2014-03-26 11:39:00,60.2,50.0,30.12,SSW,202,7.0,13.0,68,0.00,,,0.00,weatherlink.com 1.10,2014-03-26 16:39:00,
2014-03-26 11:54:00,60.1,49.0,30.11,East,86,11.0,19.0,68,0.00,,,0.00,weatherlink.com 1.10,2014-03-26 16:54:00,
2014-03-26 12:24:00,60.0,51.0,30.13,East,91,6.0,17.0,72,0.00,,,0.00,weatherlink.com 1.10,2014-03-26 17:24:00,
2014-03-26 12:39:00,59.2,51.0,30.11,ENE,70,12.0,21.0,74,0.00,,,0.00,weatherlink.com 1.10,2014-03-26 17:39:00,
2014-03-26 12:54:00,59.6,50.0,30.11,SE,135,3.0,15.0,70,0.00,,,0.00,weatherlink.com 1.10,2014-03-26 17:54:00,
2014-03-26 13:09:00,60.7,50.0,30.10,ESE,122,4.0,18.0,68,0.00,,,0.00,weatherlink.com 1.10,2014-03-26 18:09:00,
2014-03-26 13:24:00,60.8,49.0,30.10,East,96,6.0,16.0,66,0.00,,,0.00,weatherlink.com 1.10,2014-03-26 18:24:00,
2014-03-26 13:39:00,61.3,49.0,30.08,SE,139,10.0,22.0,65,0.00,,,0.00,weatherlink.com 1.10,2014-03-26 18:39:00,
2014-03-26 13:54:00,60.5,49.0,30.07,ESE,110,8.0,14.0,67,0.00,,,0.00,weatherlink.com 1.10,2014-03-26 18:54:00,
2014-03-26 14:09:00,60.1,50.0,30.07,East,99,10.0,15.0,70,0.00,,,0.00,weatherlink.com 1.10,2014-03-26 19:09:00,
2014-03-26 14:24:00,60.5,51.0,30.06,NE,35,3.0,24.0,72,0.00,,,0.00,weatherlink.com 1.10,2014-03-26 19:24:00,
2014-03-26 14:39:00,61.5,50.0,30.06,ENE,63,4.0,18.0,66,0.00,,,0.00,weatherlink.com 1.10,2014-03-26 19:39:00,
2014-03-26 14:54:00,60.3,50.0,30.05,ESE,120,5.0,17.0,68,0.00,,,0.00,weatherlink.com 1.10,2014-03-26 19:54:00,
2014-03-26 15:08:00,60.9,50.0,30.05,East,91,9.0,22.0,68,0.00,,,0.00,weatherlink.com 1.10,2014-03-26 20:08:00,
2014-03-26 15:24:00,62.8,50.0,30.03,NE,48,9.0,18.0,63,0.00,,,0.00,weatherlink.com 1.10,2014-03-26 20:24:00,
2014-03-26 15:39:00,64.7,49.0,30.02,NNE,16,6.0,16.0,57,0.00,,,0.00,weatherlink.com 1.10,2014-03-26 20:39:00,
2014-03-26 15:54:00,63.8,49.0,30.01,NE,52,2.0,14.0,58,0.00,,,0.00,weatherlink.com 1.10,2014-03-26 20:54:00,
2014-03-26 16:09:00,63.8,48.0,30.00,ENE,77,8.0,13.0,57,0.00,,,0.00,weatherlink.com 1.10,2014-03-26 21:09:00,
2014-03-26 16:24:00,63.3,50.0,30.00,ESE,102,4.0,15.0,62,0.00,,,0.00,weatherlink.com 1.10,2014-03-26 21:24:00,
2014-03-26 16:39:00,63.6,50.0,29.99,NE,35,11.0,14.0,62,0.00,,,0.00,weatherlink.com 1.10,2014-03-26 21:39:00,
2014-03-26 16:54:00,63.3,51.0,29.99,ESE,115,10.0,18.0,64,0.00,,,0.00,weatherlink.com 1.10,2014-03-26 21:54:00,
2014-03-26 17:09:00,62.9,52.0,29.98,ESE,112,3.0,17.0,67,0.00,,,0.00,weatherlink.com 1.10,2014-03-26 22:09:00,
2014-03-26 17:24:00,62.7,53.0,29.98,ENE,75,9.0,16.0,70,0.00,,,0.00,weatherlink.com 1.10,2014-03-26 22:24:00,
2014-03-26 17:39:00,62.5,53.0,29.98,East,85,5.0,13.0,72,0.00,,,0.00,weatherlink.com 1.10,2014-03-26 22:39:00,
2014-03-26 17:54:00,62.5,53.0,29.98,East,93,9.0,13.0,72,0.00,,,0.00,weatherlink.com 1.10,2014-03-26 22:54:00,
2014-03-26 18:09:00,62.5,53.0,29.98,SSE,158,2.0,19.0,72,0.00,,,0.00,weatherlink.com 1.10,2014-03-26 23:09:00,
2014-03-26 18:24:00,61.9,54.0,29.98,ENE,78,7.0,17.0,76,0.00,,,0.00,weatherlink.com 1.10,2014-03-26 23:24:00,
2014-03-26 18:39:00,60.7,55.0,29.99,NNE,26,8.0,13.0,82,0.00,,,0.00,weatherlink.com 1.10,2014-03-26 23:39:00,
2014-03-26 18:54:00,59.9,55.0,29.98,East,81,2.0,13.0,85,0.00,,,0.00,weatherlink.com 1.10,2014-03-26 23:54:00,
2014-03-26 19:09:00,60.2,55.0,29.98,ENE,68,3.0,11.0,84,0.00,,,0.00,weatherlink.com 1.10,2014-03-27 00:09:00,
2014-03-26 19:24:00,60.7,55.0,29.98,East,80,7.0,10.0,82,0.00,,,0.00,weatherlink.com 1.10,2014-03-27 00:24:00,
2014-03-26 19:39:00,60.8,55.0,29.99,ENE,61,10.0,14.0,82,0.00,,,0.00,weatherlink.com 1.10,2014-03-27 00:39:00,
2014-03-26 19:56:00,60.7,56.0,29.98,East,79,9.0,12.0,83,0.00,,,0.00,weatherlink.com 1.10,2014-03-27 00:56:00,
2014-03-26 20:09:00,60.7,56.0,29.98,East,99,7.0,11.0,83,0.00,,,0.00,weatherlink.com 1.10,2014-03-27 01:09:00,
2014-03-26 20:25:00,60.7,56.0,29.98,East,95,7.0,11.0,84,0.00,,,0.00,weatherlink.com 1.10,2014-03-27 01:25:00,
2014-03-26 20:39:00,60.7,56.0,29.98,ENE,70,4.0,11.0,84,0.00,,,0.00,weatherlink.com 1.10,2014-03-27 01:39:00,
2014-03-26 20:54:00,60.8,56.0,29.98,East,86,5.0,13.0,83,0.00,,,0.00,weatherlink.com 1.10,2014-03-27 01:54:00,
2014-03-26 21:09:00,60.9,56.0,29.98,East,89,3.0,13.0,83,0.00,,,0.00,weatherlink.com 1.10,2014-03-27 02:09:00,
2014-03-26 21:24:00,61.0,56.0,29.98,East,91,2.0,15.0,83,0.00,,,0.00,weatherlink.com 1.10,2014-03-27 02:24:00,
2014-03-26 21:39:00,60.8,56.0,29.97,East,88,6.0,10.0,83,0.00,,,0.00,weatherlink.com 1.10,2014-03-27 02:39:00,
2014-03-26 21:54:00,60.8,56.0,29.98,East,98,6.0,18.0,84,0.00,,,0.00,weatherlink.com 1.10,2014-03-27 02:54:00,
2014-03-26 22:09:00,60.7,56.0,29.98,East,80,9.0,16.0,85,0.00,,,0.00,weatherlink.com 1.10,2014-03-27 03:09:00,
2014-03-26 22:24:00,60.5,56.0,29.97,East,85,6.0,14.0,86,0.00,,,0.00,weatherlink.com 1.10,2014-03-27 03:24:00,
2014-03-26 22:39:00,60.4,56.0,29.96,NE,54,10.0,13.0,86,0.00,,,0.00,weatherlink.com 1.10,2014-03-27 03:39:00,
2014-03-26 22:54:00,60.4,57.0,29.96,NE,55,9.0,14.0,87,0.00,,,0.00,weatherlink.com 1.10,2014-03-27 03:54:00,
2014-03-26 23:10:00,60.3,57.0,29.96,ESE,121,1.0,12.0,87,0.00,,,0.00,weatherlink.com 1.10,2014-03-27 04:10:00,
2014-03-26 23:25:00,60.4,57.0,29.96,East,101,9.0,11.0,88,0.00,,,0.00,weatherlink.com 1.10,2014-03-27 04:25:00,
2014-03-26 23:40:00,60.4,57.0,29.95,North,354,5.0,14.0,88,0.00,,,0.00,weatherlink.com 1.10,2014-03-27 04:40:00,
2014-03-26 23:55:00,60.4,57.0,29.95,ENE,60,5.0,10.0,88,0.00,,,0.00,weatherlink.com 1.10,2014-03-27 04:55:00,